Tracking 18850 objects as of 21-Nov-2017
HD Live streaming from Space Station
objects crossing your sky now

HELIOS 1B

Track HELIOS 1B now!
10-day predictions
HELIOS 1B is classified as:


NORAD ID: 25977
Int'l Code: 1999-064A
Perigee: 627.5 km
Apogee: 630.8 km
Inclination: 98.2 °
Period: 97.1 minutes
Semi major axis: 7000 km
RCS: 8.0113 m2 (large)
Launch date: December 3, 1999
Source: France (FR)
Launch site: FRENCH GUIANA (FRGUI)

Helios 1B was a French military photo-reconnoissance spacecraft launched by an Ariane rocket at 16:22 UT.
aabbcc
Your satellite tracking list
Your tracking list is empty




NASA's NSSDC Master Catalog

Two Line Element Set (TLE):
1 25977U 99064A   17325.31077393  .00000135  00000-0  23849-4 0  9998
2 25977  98.1646  79.8385 0002383 114.3338 245.8123 14.82314173967286
Source of the keplerian elements: AFSPC